Flag for Nepal Weather past 2 weeks in Pokhara, Nepal

Now
79 °F

Passing clouds.


Feels Like: 81 °F
Forecast: 64 / 87 °F
Wind: 7 mph from West

Location: Kathmandu Airport

Current Time: Sep 5, 2015 at 6:29:19 PM

Latest Report: Sep 5, 2015 at 5:35 PM


Visibility: 4 mi

Pressure: 29.89 "Hg (27.13 "Hg at 847m altitude)

Humidity: 70%

Dew point: 68 °F

Historic Weather in Pokhara — Graph

°F

Pokhara temperature yesterday

Maximum temperature yesterday: 82 °F (at 1:35 PM)
Minimum temperature yesterday: 66 °F (at 1:35 AM)
Average temperature yesterday: 74 °F

Past Weeks' High & Low Weather Summary

 TemperatureHumidityPressure
High86 °F (Aug 30, 2:35 PM)100% (Aug 22, 2:35 AM)30.07 "Hg (Aug 22, 2:35 AM)
Low66 °F (Sep 4, 1:35 AM)48% (Sep 5, 3:35 PM)29.74 "Hg (Sep 1, 2:35 PM)
Average74 °F83%29.88 "Hg
* Reported Aug 21 10:35 PM — Sep 5 4:35 PM, Pokhara, Weather by CustomWeather, © 2015

Note: Actual official high and low records may vary slightly from our data, if they occured in-between our weather recording intervals... More about our weather records

Advertising

Pokhara weather history for previous 24 hours

 ConditionsComfort  
Time TempWeatherWind HumidityBarometerVisibility
4:35 PM
Sat, Sep 5
81 °FPassing clouds.8 mph66%29.89 "Hg5 mi
3:35 PM84 °FPassing clouds.9 mph48%29.92 "Hg5 mi
2:35 PM82 °FPassing clouds.9 mph55%29.95 "Hg5 mi
1:35 PM82 °FPassing clouds.10 mph55%29.98 "Hg5 mi
12:35 PM82 °FScattered clouds.8 mph58%30.01 "Hg4 mi
11:35 AM82 °FScattered clouds.3 mph62%30.04 "Hg4 mi
10:35 AM81 °FScattered clouds.3 mph66%30.04 "Hg3 mi
9:35 AM77 °FHaze.2 mph69%30.04 "Hg3 mi
8:35 AM75 °FFog.No wind74%30.04 "Hg2 mi
7:35 AM72 °FFog.3 mph83%30.04 "Hg2 mi
6:35 AM68 °FFog.2 mph94%30.04 "Hg2 mi
5:35 AM68 °FPartly cloudy.No wind88%30.01 "Hg4 mi
1:35 AM68 °FPassing clouds.3 mph94%30.01 "Hg4 mi
12:35 AM70 °FPassing clouds.2 mph88%30.04 "Hg4 mi
11:35 PM
Fri, Sep 4
70 °FPartly cloudy.3 mph94%30.04 "Hg4 mi
10:35 PM72 °FPartly cloudy.5 mph88%30.04 "Hg4 mi
9:35 PM72 °FPartly cloudy.5 mph83%30.04 "Hg4 mi
8:35 PM73 °FPassing clouds.5 mph78%30.04 "Hg4 mi
7:35 PM75 °FPassing clouds.6 mph74%30.01 "Hg4 mi
6:35 PM75 °FScattered clouds.7 mph74%29.98 "Hg5 mi
Weather by CustomWeather, © 2015

See weather overviewHow to use our weather pages